Location: Sungai Liu
(2.3667°N, 113.8667°E)
Time: 13:17:59
(UTC+00:00)

Cosmos 2233 Rocket - Pass Details

Date: 20 May 2022
Orbit: 952 x 991 km, 82.9° (Epoch: 04 July)

Event Time Altitude Azimuth Distance (km) Brightness Sun altitude
Exits shadow 12:14:05 57° 93° (E) 1,147 4.0 -25.5°
Maximum altitude 12:14:06 57° 93° (E) 1,147 4.0 -25.5°
Drops below altitude 10° 12:20:15 10° 15° (NNE) 2,741 6.4 -26.9°
Sets 12:22:48 0° 12° (NNE) 3,689 7.2 -27.5°
